Regional Weather Roundup
Issued by NWS Upton, NY

Current Version | Previous Version | Graphics & Text | Print | Product List | Glossary On
Versions: 1 2 3 4 5 6 7 8 9 10 11 12 13 14 15 16 17 18 19 20 21 22 23 24 25 26 27 28 29 30 31 32 33 34 35 36 37 38 39 40 41 42 43 44 45 46 47 48 49 50
000 ASUS41 KOKX 250705 RWROKX REGIONAL WEATHER ROUNDUP NATIONAL WEATHER SERVICE NEW YORK NY 200 AM EST THU DEC 25 2014 NOTE: "FAIR" INDICATES FEW OR NO CLOUDS BELOW 12,000 FEET WITH NO SIGNIFICANT WEATHER AND/OR OBSTRUCTIONS TO VISIBILITY. NYZ071-072-176-178-NJZ106-104-250800- NEW YORK CITY METRO AREA CITY SKY/WX TMP DP RH WIND PRES REMARKS CENTRAL PARK CLOUDY 56 55 97 SE5 29.54F LAGUARDIA APRT CLOUDY 53 52 96 S8 29.52S FOG KENNEDY INTL FOG 53 51 93 S15 29.54F VSB 1/4 NEWARK/LIBERTY CLOUDY 63 61 94 S13 29.51F BRNX BOT. GARD N/A 52 52 100 S5 29.55R TETERBORO CLOUDY 54 30 40 CALM 29.51S $$ NYZ177-179-078>081-250800- LONG ISLAND NEW YORK CITY SKY/WX TMP DP RH WIND PRES REMARKS FARMINGDALE CLOUDY 52 52 100 S15 29.56S FOG ISLIP FOG 54 53 97 SW21G28 29.55S VSB 3/4 SHIRLEY FOG 54 53 97 S14 29.58S VSB 1/2 WESTHAMPTON FOG 56 54 93 S10G18 29.59S VSB 1/2 MONTAUK POINT N/A 58 57 97 S14G22 29.60S $$ NYZ052-065-067-250800- HUDSON VALLEY CITY SKY/WX TMP DP RH WIND PRES REMARKS WHITE PLAINS FOG 54 53 97 S6 29.52R VSB 1/4 NEWBURGH CLOUDY 57 57 100 W9G18 29.48S FOG MONTGOMERY LGT RAIN 49 48 97 S3 29.47R FOG POUGHKEEPSIE CLOUDY 60 57 89 S8G20 29.47R ALBANY CLOUDY 58 55 90 S17G25 29.41R $$ NJZ001-105-106-008-010-013-015-019>022-104-250800- NEW JERSEY CITY SKY/WX TMP DP RH WIND PRES REMARKS NEWARK/LIBERTY CLOUDY 63 61 94 S13 29.51F TETERBORO CLOUDY 54 30 40 CALM 29.51S CALDWELL LGT RAIN 61 60 97 SW8 29.51R FOG MORRISTOWN RAIN 64 61 88 SW9 29.51R SOMERVILLE LGT RAIN 63 60 90 S9 29.51R SUSSEX CLOUDY 62 59 90 W7 29.49R ANDOVER NOT AVBL TRENTON LGT RAIN 63 61 93 SW13 29.53R FOG MILLVILLE CLOUDY 61 59 93 VRB5 29.60R ATLANTIC CITY CLOUDY 58 57 97 S12 29.59R VSB 1/2 WRIGHTSTOWN LGT RAIN 64 63 94 SW20 29.54R TOMS RIVER CLOUDY 61 57 88 S9G16 29.57S BELMAR CLOUDY 61 57 88 S9 29.55S $$ PAZ047>061-062-071-250800- EASTERN PENNSYLVANIA CITY SKY/WX TMP DP RH WIND PRES REMARKS PHILADELPHIA LGT RAIN 65 61 87 SW17 29.56R ALLENTOWN LGT RAIN 61 56 83 W14G32 29.53R SCRANTON CLOUDY 56 49 77 SW13G32 29.52R $$ CTZ002-004>006-009-010-012-RIZ004-006-007-MAZ004-011-015-250800- SOUTHERN NEW ENGLAND IN CT CITY SKY/WX TMP DP RH WIND PRES REMARKS BRADLEY INTL FOG 43 41 93 CALM 29.51F VSB 1/4 HARTFORD FOG 43 43 100 VRB6 29.52F VSB 1/4 DANBURY CLOUDY 58 55 90 S12G17 29.52F FOG WTRBRY/OXFORD CLOUDY 57 54 88 S13 29.52S VSB 1/2 BRIDGEPORT FOG 53 53 100 S20 29.53F VSB 1/2 MERIDEN CLOUDY 54 53 97 S8 29.53F FOG NEW HAVEN FOG 55 52 89 S12 29.54F VSB 1/2 CHESTER FOG 55 55 100 S9G17 29.56S VSB 1/4 GROTON FOG 52 52 100 S8 29.58R VSB 1/2 WILLIMANTIC CLOUDY 59 57 93 S9 29.54F IN RI CITY SKY/WX TMP DP RH WIND PRES REMARKS PROVIDENCE CLOUDY 60 58 92 S15 29.56S BLOCK ISLAND CLOUDY 55 54 94 W9 29.60R VSB 1/4 WESTERLY FOG 55 54 96 SW7 29.60R VSB 1/2 IN MA CITY SKY/WX TMP DP RH WIND PRES REMARKS BOSTON CLOUDY 45 45 100 CALM 29.55F FOG WORCESTER CLOUDY 58 58 100 SW17G26 29.52F WESTFIELD FOG 42 40 92 CALM 29.51F VSB 3/4 PROVINCETOWN CLOUDY 59 55 88 SW16G24 29.59R NANTUCKET LGT RAIN 56 55 97 S17 29.63F VSB 1/2 $$ ANZ330-335-338-340-345-350-353-355-250800- COASTAL MARINE OBSERVATIONS STATION/POSITION TIME SKY/WX TEMP WIND PRES VSBY WAVE AIR SEA DIR/SP/G HT/PER (UTC) (F) (DEG/KT/KT) (MB) (MI) (FT/S) NY HARB ENTRANCE 0700 51 46 210/ 19/ 23 1001.2 6/ 6 4S FIRE IS 0700 47 N/A 7/ 6 20S FIRE ISLAND 0600 56 51 1001.5 6/ 6 23SW MTP 0700 N/A 8/ 7 HUDSON CANYON 0700 60 55 220/ 16/ 17 1003.3 8/ 8 EXECUTION ROCKS 0700 52 42 220/ 6/ 10 N/A WESTERN LI SOUND 0700 52 170/ 12/ 16 N/A 0 CENTRAL LI SOUND 0600 49 44 190/ 12/ 14 N/A 2/ 3 EASTERN LI SOUND NOT AVBL ROBBINS REEF 0700 61 998.3 $$ >>>>>>>>>>>>>>>>>>>>>>>>>>>> KEY <<<<<<<<<<<<<<<<<<<<<<<<<<< > < > SKY/WX - SKY CONDITION/PRESENT WEATHER < > TMP - TEMPERATURE IN FAHRENHEIT < > DP - DEWPOINT IN FAHRENHEIT < > RH - RELATIVE HUMIDITY IN PERCENT < > WIND - DIRECTION AND SPEED IN MPH < > PRES - MEAN SEA LEVEL PRESSURE IN INCHES OF HG < > WCI - WIND CHILL INDEX < > VSB - VISIBILITY IN MILES < > HX - HEAT INDEX < > TC - TEMPERATURE IN CELSIUS < > VRB - VARIABLE WIND DIRECTION < > < >>>>>>>>>>>>>>>>>>>>>>>>>>>> KEY <<<<<<<<<<<<<<<<<<<<<<<<<<<

USA.gov is the U.S. government's official web portal to all federal, state and local government web resources and services.